This demonstration page uses our WeatherBlox Daily Observations layout. Learn more.

Left ArrowRight Arrow

Hourly Observations for January 21, 2017

Temp ( °F °C ) Dew Point ( °F °C ) Humidity (%) Winds ( mph kmh ) Pressure ( in mb ) Visibility ( mi km ) Precip ( " mm )
12:16 am 00:16 Mostly Cloudy 50 10 46 8 88 88 SSE 7 11 29.71 1006 10 16.0934 N/A
12:35 am 00:35 Cloudy 50 10 48 9 94 94 SSE 7 11 29.71 1006 10 16.0934 N/A
12:55 am 00:55 Mostly Cloudy 50 10 48 9 94 94 SSE 6 9 29.71 1006 10 16.0934 N/A
1:16 am 01:16 Mostly Cloudy 50 10 46 8 88 88 SSE 7 11 29.71 1006 10 16.0934 N/A
1:35 am 01:35 Cloudy 50 10 46 8 88 88 SSE 8 13 29.68 1005 10 16.0934 N/A
1:55 am 01:55 Mostly Cloudy 50 10 46 8 88 88 SSE 7 11 29.71 1006 10 16.0934 N/A
2:16 am 02:16 Mostly Cloudy 48 9 46 8 94 94 S 6 9 29.68 1005 10 16.0934 N/A
2:35 am 02:35 Cloudy 50 10 46 8 88 88 S 7 11 29.71 1006 10 16.0934 N/A
2:56 am 02:56 Mostly Cloudy 50 10 46 8 88 88 S 7 11 29.71 1006 10 16.0934 N/A
3:15 am 03:15 Mostly Cloudy 50 10 46 8 88 88 SSE 8 13 29.71 1006 10 16.0934 N/A
3:35 am 03:35 Mostly Cloudy 50 10 46 8 88 88 S 8 13 29.71 1006 10 16.0934 N/A
3:56 am 03:56 Mostly Cloudy 50 10 48 9 94 94 S 8 13 29.68 1005 10 16.0934 N/A
4:15 am 04:15 Partly Cloudy 50 10 46 8 88 88 S 7 11 29.68 1005 10 16.0934 N/A
4:36 am 04:36 Partly Cloudy 48 9 46 8 94 94 S 7 11 29.68 1005 10 16.0934 N/A
4:55 am 04:55 Clear 48 9 46 8 94 94 SSE 7 11 29.65 1004 10 16.0934 N/A
5:15 am 05:15 Clear 48 9 46 8 94 94 S 8 13 29.68 1005 10 16.0934 N/A
5:36 am 05:36 Clear 48 9 46 8 94 94 S 7 11 29.68 1005 10 16.0934 N/A
5:55 am 05:55 Clear 48 9 46 8 94 94 S 8 13 29.65 1004 10 16.0934 N/A
6:15 am 06:15 Clear 48 9 46 8 94 94 S 8 13 29.65 1004 10 16.0934 N/A
6:36 am 06:36 Clear 48 9 46 8 94 94 S 8 13 29.68 1005 7 11.26538 N/A
6:55 am 06:55 Clear 48 9 46 8 94 94 S 8 13 29.68 1005 7 11.26538 N/A
7:16 am 07:16 Clear 48 9 46 8 94 94 S 8 13 29.68 1005 7 11.26538 N/A
7:35 am 07:35 Clear 48 9 46 8 94 94 S 8 13 29.68 1005 7 11.26538 N/A
7:56 am 07:56 Clear 46 8 46 8 100 100 S 9 15 29.68 1005 5 8.0467 N/A
8:15 am 08:15 Sunny 48 9 46 8 94 94 S 7 11 29.65 1004 5 8.0467 N/A
8:35 am 08:35 Sunny 48 9 46 8 94 94 SSE 7 11 29.65 1004 4 6.43736 N/A
8:56 am 08:56 Sunny 48 9 46 8 94 94 S 8 13 29.65 1004 5 8.0467 N/A
9:15 am 09:15 Sunny 48 9 48 9 100 100 S 12 19 29.68 1005 5 8.0467 N/A
9:36 am 09:36 Sunny 50 10 48 9 94 94 S 10 17 29.68 1005 7 11.26538 N/A
9:55 am 09:55 Sunny 50 10 48 9 94 94 S 9 15 29.65 1004 7 11.26538 N/A
10:15 am 10:15 Sunny 52 11 50 10 94 94 S 9 15 29.65 1004 10 16.0934 N/A
10:36 am 10:36 Sunny 52 11 50 10 94 94 S 9 15 29.65 1004 10 16.0934 N/A
10:55 am 10:55 Sunny 54 12 50 10 88 88 S 8 13 29.65 1004 10 16.0934 N/A
11:16 am 11:16 Sunny 54 12 50 10 88 88 S 9 15 29.65 1004 10 16.0934 N/A
11:35 am 11:35 Sunny 55 13 52 11 88 88 S 10 17 29.65 1004 10 16.0934 N/A
11:56 am 11:56 Sunny 55 13 52 11 88 88 S 15 24 29.65 1004 10 16.0934 N/A
12:15 pm 12:15 Sunny 55 13 52 11 88 88 S 12 19 29.65 1004 10 16.0934 N/A
12:35 pm 12:35 Sunny 57 14 52 11 82 82 S 10 17 29.62 1003 10 16.0934 N/A
12:56 pm 12:56 Sunny 57 14 52 11 82 82 S 8 13 29.62 1003 10 16.0934 N/A
1:15 pm 13:15 Sunny 57 14 52 11 82 82 S 9 15 29.62 1003 10 16.0934 N/A
1:36 pm 13:36 Sunny 59 15 52 11 77 77 S 9 15 29.59 1002 10 16.0934 N/A
1:55 pm 13:55 Sunny 59 15 54 12 82 82 S 9 15 29.59 1002 10 16.0934 N/A
2:15 pm 14:15 Sunny 59 15 54 12 82 82 S 9 15 29.59 1002 10 16.0934 N/A
2:36 pm 14:36 Sunny 61 16 54 12 77 77 S 10 17 29.59 1002 10 16.0934 N/A
2:55 pm 14:55 Sunny 61 16 54 12 77 77 S 12 19 29.56 1001 10 16.0934 N/A
3:16 pm 15:16 Sunny 61 16 54 12 77 77 S 10 17 29.56 1001 10 16.0934 N/A
3:35 pm 15:35 Sunny 63 17 54 12 73 73 S 12 19 29.53 1000 10 16.0934 N/A
3:55 pm 15:55 Sunny 63 17 54 12 73 73 S 10 17 29.56 1001 10 16.0934 N/A
4:16 pm 16:16 Sunny 61 16 54 12 77 77 S 7 11 29.59 1002 10 16.0934 N/A
4:35 pm 16:35 Sunny 61 16 55 13 83 83 S 9 15 29.59 1002 10 16.0934 N/A
4:56 pm 16:56 Sunny 61 16 54 12 77 77 S 6 9 29.59 1002 10 16.0934 N/A
5:15 pm 17:15 Sunny 61 16 54 12 77 77 S 7 11 29.59 1002 10 16.0934 N/A
5:35 pm 17:35 Sunny 59 15 54 12 82 82 SSE 7 11 29.59 1002 10 16.0934 N/A
5:56 pm 17:56 Clear 57 14 52 11 82 82 SSE 7 11 29.59 1002 10 16.0934 N/A
6:15 pm 18:15 Clear 57 14 54 12 88 88 SSE 7 11 29.59 1002 10 16.0934 N/A
6:36 pm 18:36 Clear 55 13 52 11 88 88 S 8 13 29.59 1002 10 16.0934 N/A
6:55 pm 18:55 Clear 55 13 52 11 88 88 SSE 7 11 29.59 1002 10 16.0934 N/A
7:15 pm 19:15 Clear 55 13 52 11 88 88 S 6 9 29.59 1002 10 16.0934 N/A
7:36 pm 19:36 Clear 54 12 52 11 94 94 S 5 7 29.59 1002 10 16.0934 N/A
7:55 pm 19:55 Clear 54 12 52 11 94 94 S 5 7 29.59 1002 10 16.0934 N/A
8:15 pm 20:15 Clear 54 12 52 11 94 94 S 6 9 29.59 1002 10 16.0934 N/A
8:35 pm 20:35 Clear 54 12 50 10 88 88 S 6 9 29.62 1003 10 16.0934 N/A
8:56 pm 20:56 Clear 54 12 50 10 88 88 S 5 7 29.62 1003 10 16.0934 N/A
9:15 pm 21:15 Clear 54 12 50 10 88 88 S 5 7 29.62 1003 10 16.0934 N/A
9:36 pm 21:36 Clear 54 12 50 10 88 88 S 5 7 29.62 1003 10 16.0934 N/A
9:55 pm 21:55 Clear 54 12 50 10 88 88 S 6 9 29.62 1003 10 16.0934 N/A
10:16 pm 22:16 Partly Cloudy 54 12 50 10 88 88 S 6 9 29.62 1003 10 16.0934 N/A
10:35 pm 22:35 Cloudy 54 12 50 10 88 88 S 6 9 29.62 1003 10 16.0934 N/A
10:55 pm 22:55 Cloudy 54 12 50 10 88 88 S 6 9 29.62 1003 10 16.0934 N/A
11:15 pm 23:15 Cloudy 54 12 50 10 88 88 SSE 7 11 29.62 1003 10 16.0934 N/A
11:36 pm 23:36 Mostly Cloudy 54 12 50 10 88 88 S 5 7 29.62 1003 10 16.0934 N/A
11:55 pm 23:55 Partly Cloudy 54 12 50 10 88 88 S 5 7 29.62 1003 10 16.0934 N/A

Powered by AerisWeather